Location: Unspecified
(0.0000°N, 0.0000°E)
Time: 00:07:07
(UTC+02:00)

Cosmos 1295 Rocket - Visible Passes

Search period start: 24 April 2014 00:00
Search period end: 04 May 2014 00:00
Orbit: 945 x 993 km, 82.9° (Epoch: 23 April)

Date Brightness Start Highest point End Pass type
(mag) Time Alt. Az. Time Alt. Az. Time Alt. Az.
24 Apr 6.3 22:40:27 22° NNW 22:40:27 22° NNW 22:42:33 10° NNW visible
25 Apr 5.7 21:17:28 21° ENE 21:17:28 21° ENE 21:20:12 10° NE visible
25 Apr 6.6 23:01:50 20° WNW 23:01:50 20° WNW 23:04:49 10° NW visible
26 Apr 4.4 21:37:56 53° ESE 21:38:41 56° E 21:44:39 10° NNE visible
27 Apr 4.6 21:56:06 10° S 22:02:09 69° W 22:08:13 10° N visible
28 Apr 5.7 20:36:37 10° SE 20:40:41 19° E 20:44:45 10° NE visible
28 Apr 5.9 22:20:16 10° SSW 22:25:36 32° W 22:30:58 10° NNW visible
29 Apr 4.8 20:58:30 10° SSE 21:04:08 40° E 21:09:47 10° NNE visible
29 Apr 7.0 22:45:50 10° WSW 22:49:04 15° W 22:52:20 10° NW visible
30 Apr 4.3 21:21:29 10° S 21:27:36 85° E 21:33:44 10° N visible
01 May 5.4 21:45:16 10° SSW 21:51:03 46° W 21:56:53 10° NNW visible
02 May 5.2 20:24:28 10° SSE 20:29:36 28° E 20:34:43 10° NE visible
02 May 6.7 22:10:02 10° SW 22:14:31 22° W 22:19:02 10° NW visible
03 May 4.4 20:47:02 10° S 20:53:03 60° E 20:59:05 10° NNE visible
